Time,TemperatureF,DewpointF,PressureIn,WindDirection,WindDirectionDegrees,WindSpeedMPH,WindSpeedGustMPH,Humidity,HourlyPrecipIn,Conditions,Clouds,dailyrainin,SolarRadiationWatts/m^2,SoftwareType,DateUTC
2013-04-28 00:00:00,74.9,67.6,30.13,North,355,2.7,3.5,78,0.00,,,0.00,0.0,WeatherDisplay:10.37,2013-04-28 04:00:00,
2013-04-28 00:01:00,74.9,67.6,30.13,SSE,154,2.8,3.5,78,0.00,,,0.00,0.0,WeatherDisplay:10.37,2013-04-28 04:01:00,
2013-04-28 00:02:00,74.9,67.6,30.14,ESE,117,2.7,4.6,78,0.00,,,0.00,0.0,WeatherDisplay:10.37,2013-04-28 04:02:00,
2013-04-28 00:07:00,74.8,67.5,30.14,ESE,107,1.6,4.6,78,0.00,,,0.00,0.0,WeatherDisplay:10.37,2013-04-28 04:07:00,
2013-04-28 00:12:00,74.7,67.4,30.13,East,101,0.4,3.5,78,0.00,,,0.00,0.0,WeatherDisplay:10.37,2013-04-28 04:12:00,
2013-04-28 00:17:00,74.6,67.3,30.14,West,266,2.4,4.6,78,0.00,,,0.00,0.0,WeatherDisplay:10.37,2013-04-28 04:17:00,
2013-04-28 00:22:00,74.5,67.2,30.14,East,90,3.4,10.4,78,0.00,,,0.00,0.0,WeatherDisplay:10.37,2013-04-28 04:22:00,
2013-04-28 00:27:00,74.5,67.2,30.13,ESE,104,5.1,9.2,78,0.00,,,0.00,0.0,WeatherDisplay:10.37,2013-04-28 04:27:00,
2013-04-28 00:32:00,74.4,67.5,30.14,NNE,33,4.1,9.0,79,0.00,,,0.00,0.0,WeatherDisplay:10.37,2013-04-28 04:32:00,
2013-04-28 00:37:00,74.3,67.4,30.13,ESE,112,1.6,3.5,79,0.00,,,0.00,0.0,WeatherDisplay:10.37,2013-04-28 04:37:00,
2013-04-28 00:42:00,74.1,67.2,30.13,ESE,113,2.7,5.8,79,0.00,,,0.00,0.0,WeatherDisplay:10.37,2013-04-28 04:42:00,
2013-04-28 00:47:00,74.0,67.1,30.13,ENE,61,2.6,3.5,79,0.00,,,0.00,0.0,WeatherDisplay:10.37,2013-04-28 04:47:00,
2013-04-28 00:52:00,73.9,67.0,30.13,SE,139,2.4,5.0,79,0.00,,,0.00,0.0,WeatherDisplay:10.37,2013-04-28 04:52:00,
2013-04-28 00:57:00,73.8,66.9,30.13,NE,51,2.2,4.0,79,0.00,,,0.00,0.0,WeatherDisplay:10.37,2013-04-28 04:57:00,
2013-04-28 01:02:00,73.8,66.9,30.13,NE,34,3.3,6.9,79,0.00,,,0.00,0.0,WeatherDisplay:10.37,2013-04-28 05:02:00,
2013-04-28 01:07:00,73.6,67.0,30.13,East,92,2.5,8.1,80,0.00,,,0.00,0.0,WeatherDisplay:10.37,2013-04-28 05:07:00,
2013-04-28 01:12:00,73.5,66.9,30.13,NE,55,2.9,6.9,80,0.00,,,0.00,0.0,WeatherDisplay:10.37,2013-04-28 05:12:00,
2013-04-28 01:17:00,73.4,66.9,30.13,ESE,102,4.0,7.0,80,0.00,,,0.00,0.0,WeatherDisplay:10.37,2013-04-28 05:17:00,
2013-04-28 01:22:00,73.3,66.8,30.12,SE,146,3.2,6.9,80,0.00,,,0.00,0.0,WeatherDisplay:10.37,2013-04-28 05:22:00,
2013-04-28 01:27:00,73.1,66.6,30.12,ESE,123,6.1,9.2,80,0.00,,,0.00,0.0,WeatherDisplay:10.37,2013-04-28 05:27:00,
2013-04-28 01:32:00,73.1,66.6,30.12,SE,132,3.6,6.9,80,0.00,,,0.00,0.0,WeatherDisplay:10.37,2013-04-28 05:32:00,
2013-04-28 01:37:00,73.0,66.5,30.11,ESE,119,4.0,9.2,80,0.00,,,0.00,0.0,WeatherDisplay:10.37,2013-04-28 05:37:00,
2013-04-28 01:42:00,73.0,66.5,30.11,ENE,78,1.0,3.5,80,0.00,,,0.00,0.0,WeatherDisplay:10.37,2013-04-28 05:42:00,
2013-04-28 01:47:00,72.9,66.4,30.11,East,92,2.1,5.8,80,0.00,,,0.00,0.0,WeatherDisplay:10.37,2013-04-28 05:47:00,
2013-04-28 01:52:00,72.8,66.6,30.11,SSE,154,2.1,6.9,81,0.00,,,0.00,0.0,WeatherDisplay:10.37,2013-04-28 05:52:00,
2013-04-28 01:57:00,72.8,66.6,30.11,East,92,4.3,8.1,81,0.00,,,0.00,0.0,WeatherDisplay:10.37,2013-04-28 05:57:00,
2013-04-28 02:02:00,72.7,66.5,30.11,SE,144,2.1,5.0,81,0.00,,,0.00,0.0,WeatherDisplay:10.37,2013-04-28 06:02:00,
2013-04-28 02:07:00,72.6,66.4,30.11,SSW,194,4.1,9.2,81,0.00,,,0.00,0.0,WeatherDisplay:10.37,2013-04-28 06:07:00,
2013-04-28 02:12:00,72.6,66.8,30.10,NE,38,3.0,6.9,82,0.00,,,0.00,0.0,WeatherDisplay:10.37,2013-04-28 06:12:00,
2013-04-28 02:17:00,72.5,66.7,30.10,ESE,106,2.0,5.8,82,0.00,,,0.00,0.0,WeatherDisplay:10.37,2013-04-28 06:17:00,
2013-04-28 02:22:00,72.4,66.6,30.10,SE,141,3.2,8.1,82,0.00,,,0.00,0.0,WeatherDisplay:10.37,2013-04-28 06:22:00,
2013-04-28 02:27:00,72.3,66.5,30.10,SSE,160,2.4,4.6,82,0.00,,,0.00,0.0,WeatherDisplay:10.37,2013-04-28 06:27:00,
2013-04-28 02:32:00,72.2,66.4,30.10,NNE,28,1.2,6.9,82,0.00,,,0.00,0.0,WeatherDisplay:10.37,2013-04-28 06:32:00,
2013-04-28 02:37:00,72.1,66.6,30.10,ENE,76,1.1,3.5,83,0.00,,,0.00,0.0,WeatherDisplay:10.37,2013-04-28 06:37:00,
2013-04-28 02:42:00,72.1,66.3,30.10,East,83,3.8,5.8,82,0.00,,,0.00,0.0,WeatherDisplay:10.37,2013-04-28 06:42:00,
2013-04-28 02:47:00,72.1,66.3,30.10,NE,41,3.7,8.1,82,0.00,,,0.00,0.0,WeatherDisplay:10.37,2013-04-28 06:47:00,
2013-04-28 02:52:00,72.0,66.2,30.10,ESE,111,1.7,6.9,82,0.00,,,0.00,0.0,WeatherDisplay:10.37,2013-04-28 06:52:00,
2013-04-28 02:57:00,72.0,66.6,30.10,ESE,102,3.7,6.9,83,0.00,,,0.00,0.0,WeatherDisplay:10.37,2013-04-28 06:57:00,
2013-04-28 03:02:00,72.0,66.6,30.09,South,190,0.6,5.8,83,0.00,,,0.00,0.0,WeatherDisplay:10.37,2013-04-28 07:02:00,
2013-04-28 03:07:00,71.9,66.5,30.10,ESE,119,0.2,6.9,83,0.00,,,0.00,0.0,WeatherDisplay:10.37,2013-04-28 07:07:00,
2013-04-28 03:12:00,71.9,66.5,30.10,ESE,120,2.3,8.1,83,0.00,,,0.00,0.0,WeatherDisplay:10.37,2013-04-28 07:12:00,
2013-04-28 03:17:00,71.9,66.5,30.09,NE,48,3.4,6.0,83,0.00,,,0.00,0.0,WeatherDisplay:10.37,2013-04-28 07:17:00,
2013-04-28 03:22:00,71.8,66.4,30.09,East,92,1.6,6.9,83,0.00,,,0.00,0.0,WeatherDisplay:10.37,2013-04-28 07:22:00,
2013-04-28 03:27:00,71.8,66.4,30.09,ESE,105,2.0,8.1,83,0.00,,,0.00,0.0,WeatherDisplay:10.37,2013-04-28 07:27:00,
2013-04-28 03:32:00,71.7,66.6,30.08,ESE,117,5.4,6.9,84,0.00,,,0.00,0.0,WeatherDisplay:10.37,2013-04-28 07:32:00,
2013-04-28 03:37:00,71.7,66.3,30.08,East,87,1.6,9.2,83,0.00,,,0.00,0.0,WeatherDisplay:10.37,2013-04-28 07:37:00,
2013-04-28 03:42:00,71.6,66.2,30.08,ESE,113,2.8,8.1,83,0.00,,,0.00,0.0,WeatherDisplay:10.37,2013-04-28 07:42:00,
2013-04-28 03:47:00,71.6,66.5,30.07,SE,146,4.6,8.1,84,0.00,,,0.00,0.0,WeatherDisplay:10.37,2013-04-28 07:47:00,
2013-04-28 03:52:00,71.5,66.4,30.07,East,94,0.1,1.2,84,0.00,,,0.00,0.0,WeatherDisplay:10.37,2013-04-28 07:52:00,
2013-04-28 03:57:00,71.4,66.3,30.07,ESE,103,4.1,6.0,84,0.00,,,0.00,0.0,WeatherDisplay:10.37,2013-04-28 07:57:00,
2013-04-28 04:02:00,71.4,66.3,30.07,SE,132,5.1,8.0,84,0.00,,,0.00,0.0,WeatherDisplay:10.37,2013-04-28 08:02:00,
2013-04-28 04:07:00,71.5,66.4,30.07,ENE,67,1.5,4.6,84,0.00,,,0.00,0.0,WeatherDisplay:10.37,2013-04-28 08:07:00,
2013-04-28 04:12:00,71.4,66.3,30.07,SE,142,0.6,3.5,84,0.00,,,0.00,0.0,WeatherDisplay:10.37,2013-04-28 08:12:00,
2013-04-28 04:17:00,71.3,66.2,30.08,SE,124,0.4,2.3,84,0.00,,,0.00,0.0,WeatherDisplay:10.37,2013-04-28 08:17:00,
2013-04-28 04:22:00,71.3,66.2,30.07,SE,146,3.6,4.6,84,0.00,,,0.00,0.0,WeatherDisplay:10.37,2013-04-28 08:22:00,
2013-04-28 04:27:00,71.3,66.2,30.07,NE,53,4.2,5.0,84,0.00,,,0.00,0.0,WeatherDisplay:10.37,2013-04-28 08:27:00,
2013-04-28 04:32:00,71.3,66.2,30.07,ESE,117,1.6,6.9,84,0.00,,,0.00,0.0,WeatherDisplay:10.37,2013-04-28 08:32:00,
2013-04-28 04:37:00,71.3,66.2,30.07,SE,126,3.0,3.5,84,0.00,,,0.00,0.0,WeatherDisplay:10.37,2013-04-28 08:37:00,
2013-04-28 04:42:00,71.2,66.1,30.08,SE,127,4.0,11.5,84,0.00,,,0.00,0.0,WeatherDisplay:10.37,2013-04-28 08:42:00,
2013-04-28 04:47:00,71.3,66.2,30.08,SE,128,3.8,6.9,84,0.00,,,0.00,0.0,WeatherDisplay:10.37,2013-04-28 08:47:00,
2013-04-28 04:52:00,71.2,66.1,30.08,SSE,163,4.0,8.1,84,0.00,,,0.00,0.0,WeatherDisplay:10.37,2013-04-28 08:52:00,
2013-04-28 04:57:00,71.1,66.0,30.07,SSE,158,3.1,5.8,84,0.00,,,0.00,0.0,WeatherDisplay:10.37,2013-04-28 08:57:00,
2013-04-28 05:02:00,71.0,65.9,30.07,SSE,165,1.9,4.6,84,0.00,,,0.00,0.0,WeatherDisplay:10.37,2013-04-28 09:02:00,
2013-04-28 05:07:00,70.8,65.7,30.07,SE,142,2.7,2.7,84,0.00,,,0.00,0.0,WeatherDisplay:10.37,2013-04-28 09:07:00,
2013-04-28 05:12:00,70.8,66.1,30.07,ESE,108,2.1,4.6,85,0.00,,,0.00,0.0,WeatherDisplay:10.37,2013-04-28 09:12:00,
2013-04-28 05:17:00,70.7,66.0,30.07,ESE,103,1.1,5.8,85,0.00,,,0.00,0.0,WeatherDisplay:10.37,2013-04-28 09:17:00,
2013-04-28 05:22:00,70.7,66.0,30.07,SE,130,3.3,7.0,85,0.00,,,0.00,0.0,WeatherDisplay:10.37,2013-04-28 09:22:00,
2013-04-28 05:27:00,70.6,66.2,30.07,ESE,107,3.5,6.9,86,0.00,,,0.00,0.0,WeatherDisplay:10.37,2013-04-28 09:27:00,
2013-04-28 05:32:00,70.4,66.0,30.07,SSE,162,1.7,6.9,86,0.00,,,0.00,0.0,WeatherDisplay:10.37,2013-04-28 09:32:00,
2013-04-28 05:37:00,70.4,65.7,30.07,SE,143,2.0,4.6,85,0.00,,,0.00,0.0,WeatherDisplay:10.37,2013-04-28 09:37:00,
2013-04-28 05:43:00,70.4,65.7,30.07,South,169,5.1,8.1,85,0.00,,,0.00,0.0,WeatherDisplay:10.37,2013-04-28 09:43:00,
2013-04-28 05:48:00,70.4,65.7,30.07,South,178,0.8,2.0,85,0.00,,,0.00,0.0,WeatherDisplay:10.37,2013-04-28 09:48:00,
2013-04-28 05:53:00,70.3,65.6,30.07,ESE,121,2.5,6.9,85,0.00,,,0.00,0.0,WeatherDisplay:10.37,2013-04-28 09:53:00,
2013-04-28 05:58:00,70.4,65.7,30.07,SSW,192,0.7,2.3,85,0.00,,,0.00,0.0,WeatherDisplay:10.37,2013-04-28 09:58:00,
2013-04-28 06:03:00,70.2,65.5,30.06,SSE,150,0.3,5.0,85,0.00,,,0.00,0.0,WeatherDisplay:10.37,2013-04-28 10:03:00,
2013-04-28 06:08:00,70.2,65.5,30.06,South,186,1.7,5.8,85,0.00,,,0.00,0.0,WeatherDisplay:10.37,2013-04-28 10:08:00,
2013-04-28 06:13:00,70.2,65.8,30.06,ESE,120,0.5,2.3,86,0.00,,,0.00,0.0,WeatherDisplay:10.37,2013-04-28 10:13:00,
2013-04-28 06:18:00,70.2,65.8,30.07,South,185,1.5,3.5,86,0.00,,,0.00,0.0,WeatherDisplay:10.37,2013-04-28 10:18:00,
2013-04-28 06:23:00,70.1,65.4,30.07,SSE,147,1.2,4.6,85,0.00,,,0.00,0.0,WeatherDisplay:10.37,2013-04-28 10:23:00,
2013-04-28 06:28:00,70.1,65.4,30.07,SE,124,0.0,3.5,85,0.00,,,0.00,0.0,WeatherDisplay:10.37,2013-04-28 10:28:00,
2013-04-28 06:33:00,70.2,65.5,30.08,SE,138,0.7,4.6,85,0.00,,,0.00,0.0,WeatherDisplay:10.37,2013-04-28 10:33:00,
2013-04-28 06:38:00,70.2,65.5,30.07,East,90,2.4,4.6,85,0.00,,,0.00,0.0,WeatherDisplay:10.37,2013-04-28 10:38:00,
2013-04-28 06:43:00,70.2,65.5,30.07,East,95,0.4,3.5,85,0.00,,,0.00,0.0,WeatherDisplay:10.37,2013-04-28 10:43:00,
2013-04-28 06:48:00,70.1,65.4,30.07,SE,141,0.4,2.0,85,0.00,,,0.00,0.0,WeatherDisplay:10.37,2013-04-28 10:48:00,
2013-04-28 06:53:00,70.1,65.4,30.08,East,80,0.1,2.3,85,0.00,,,0.00,0.0,WeatherDisplay:10.37,2013-04-28 10:53:00,
2013-04-28 06:58:00,70.1,65.4,30.08,NE,54,2.5,2.5,85,0.00,,,0.00,7.0,WeatherDisplay:10.37,2013-04-28 10:58:00,
2013-04-28 07:03:00,70.0,65.6,30.08,ESE,117,2.9,4.6,86,0.00,,,0.00,9.0,WeatherDisplay:10.37,2013-04-28 11:03:00,
2013-04-28 07:08:00,70.1,65.7,30.09,SE,130,1.0,2.3,86,0.00,,,0.00,12.0,WeatherDisplay:10.37,2013-04-28 11:08:00,
2013-04-28 07:13:00,70.2,65.8,30.09,ESE,109,0.4,2.3,86,0.00,,,0.00,16.0,WeatherDisplay:10.37,2013-04-28 11:13:00,
2013-04-28 07:18:00,70.1,65.7,30.09,ESE,123,0.3,3.5,86,0.00,,,0.00,19.0,WeatherDisplay:10.37,2013-04-28 11:18:00,
2013-04-28 07:23:00,70.1,65.7,30.09,ENE,75,1.1,1.2,86,0.00,,,0.00,21.0,WeatherDisplay:10.37,2013-04-28 11:23:00,
2013-04-28 07:28:00,70.1,65.7,30.09,East,88,2.0,3.5,86,0.00,,,0.00,25.0,WeatherDisplay:10.37,2013-04-28 11:28:00,
2013-04-28 07:33:00,70.2,65.8,30.09,ESE,117,0.8,3.5,86,0.00,,,0.00,37.0,WeatherDisplay:10.37,2013-04-28 11:33:00,
2013-04-28 07:38:00,70.4,66.0,30.10,East,96,0.4,1.2,86,0.00,,,0.00,69.0,WeatherDisplay:10.37,2013-04-28 11:38:00,
2013-04-28 07:43:00,70.8,66.1,30.10,ESE,118,0.4,1.0,85,0.00,,,0.00,81.0,WeatherDisplay:10.37,2013-04-28 11:43:00,
2013-04-28 07:48:00,71.0,66.3,30.10,ENE,65,0.0,1.2,85,0.00,,,0.00,105.0,WeatherDisplay:10.37,2013-04-28 11:48:00,
2013-04-28 07:53:00,71.2,66.1,30.10,East,85,0.1,3.5,84,0.00,,,0.00,134.0,WeatherDisplay:10.37,2013-04-28 11:53:00,
2013-04-28 07:58:00,71.5,66.4,30.10,SE,130,0.8,3.0,84,0.00,,,0.00,132.0,WeatherDisplay:10.37,2013-04-28 11:58:00,
2013-04-28 08:03:00,71.7,66.6,30.10,SE,144,2.4,5.8,84,0.00,OVC,,0.00,135.0,WeatherDisplay:10.37,2013-04-28 12:03:00,
2013-04-28 08:08:00,71.9,66.5,30.10,ESE,122,0.8,9.0,83,0.00,OVC,,0.00,125.0,WeatherDisplay:10.37,2013-04-28 12:08:00,
2013-04-28 08:13:00,72.0,66.6,30.11,East,87,3.4,9.2,83,0.00,OVC,,0.00,202.0,WeatherDisplay:10.37,2013-04-28 12:13:00,
2013-04-28 08:18:00,72.5,67.0,30.10,East,89,0.7,3.5,83,0.00,OVC,,0.00,171.0,WeatherDisplay:10.37,2013-04-28 12:18:00,
2013-04-28 08:23:00,72.8,66.6,30.11,ESE,113,1.1,3.5,81,0.00,OVC,,0.00,239.0,WeatherDisplay:10.37,2013-04-28 12:23:00,
2013-04-28 08:28:00,73.1,66.6,30.11,East,87,3.0,6.9,80,0.00,OVC,,0.00,264.0,WeatherDisplay:10.37,2013-04-28 12:28:00,
2013-04-28 08:33:00,73.5,66.9,30.11,South,183,1.7,3.5,80,0.00,OVC,,0.00,281.0,WeatherDisplay:10.37,2013-04-28 12:33:00,
2013-04-28 08:38:00,73.7,66.8,30.11,SE,142,3.6,5.8,79,0.00,OVC,,0.00,299.0,WeatherDisplay:10.37,2013-04-28 12:38:00,
2013-04-28 08:43:00,74.0,67.1,30.11,ESE,123,1.6,3.5,79,0.00,OVC,,0.00,316.0,WeatherDisplay:10.37,2013-04-28 12:43:00,
2013-04-28 08:48:00,74.3,67.0,30.11,South,186,1.2,3.5,78,0.00,OVC,,0.00,334.0,WeatherDisplay:10.37,2013-04-28 12:48:00,
2013-04-28 08:53:00,74.4,66.7,30.11,SSE,164,4.6,8.1,77,0.00,OVC,,0.00,353.0,WeatherDisplay:10.37,2013-04-28 12:53:00,
2013-04-28 08:58:00,74.7,67.4,30.11,South,178,1.3,4.0,78,0.00,OVC,,0.00,369.0,WeatherDisplay:10.37,2013-04-28 12:58:00,
2013-04-28 09:03:00,75.1,66.6,30.11,ENE,68,2.8,4.6,75,0.00,OVC,,0.00,387.0,WeatherDisplay:10.37,2013-04-28 13:03:00,
2013-04-28 09:08:00,75.4,66.5,30.11,ESE,123,4.8,8.0,74,0.00,OVC,,0.00,406.0,WeatherDisplay:10.37,2013-04-28 13:08:00,
2013-04-28 09:13:00,75.6,66.3,30.11,ESE,107,4.4,11.5,73,0.00,OVC,,0.00,425.0,WeatherDisplay:10.37,2013-04-28 13:13:00,
2013-04-28 09:18:00,75.7,66.8,30.11,SSE,150,1.4,5.8,74,0.00,OVC,,0.00,443.0,WeatherDisplay:10.37,2013-04-28 13:18:00,
2013-04-28 09:23:00,76.5,66.8,30.11,SE,126,3.1,5.8,72,0.00,OVC,,0.00,461.0,WeatherDisplay:10.37,2013-04-28 13:23:00,
2013-04-28 09:28:00,76.6,66.9,30.11,SE,126,1.2,3.5,72,0.00,OVC,,0.00,480.0,WeatherDisplay:10.37,2013-04-28 13:28:00,
2013-04-28 09:33:00,77.0,67.3,30.11,SE,145,2.3,5.8,72,0.00,OVC,,0.00,494.0,WeatherDisplay:10.37,2013-04-28 13:33:00,
2013-04-28 09:38:00,77.1,66.6,30.11,ENE,74,3.2,9.2,70,0.00,OVC,,0.00,513.0,WeatherDisplay:10.37,2013-04-28 13:38:00,
2013-04-28 09:43:00,76.6,66.5,30.11,SSE,167,4.7,8.1,71,0.00,OVC,,0.00,533.0,WeatherDisplay:10.37,2013-04-28 13:43:00,
2013-04-28 09:48:00,76.8,66.3,30.11,ENE,65,0.4,2.3,70,0.00,OVC,,0.00,548.0,WeatherDisplay:10.37,2013-04-28 13:48:00,
2013-04-28 09:53:00,77.1,66.6,30.11,ESE,117,4.6,10.4,70,0.00,OVC,,0.00,564.0,WeatherDisplay:10.37,2013-04-28 13:53:00,
2013-04-28 09:58:00,77.1,66.6,30.11,SSW,192,4.5,9.2,70,0.00,OVC,,0.00,582.0,WeatherDisplay:10.37,2013-04-28 13:58:00,
2013-04-28 10:03:00,77.2,66.7,30.11,SE,134,2.1,5.0,70,0.00,OVC,,0.00,601.0,WeatherDisplay:10.37,2013-04-28 14:03:00,
2013-04-28 10:08:00,78.0,67.0,30.11,East,98,2.9,7.0,69,0.00,OVC,,0.00,613.0,WeatherDisplay:10.37,2013-04-28 14:08:00,
2013-04-28 10:13:00,78.0,67.0,30.11,South,171,2.5,6.9,69,0.00,OVC,,0.00,629.0,WeatherDisplay:10.37,2013-04-28 14:13:00,
2013-04-28 10:18:00,79.1,67.2,30.11,ESE,105,1.7,4.6,67,0.00,OVC,,0.00,645.0,WeatherDisplay:10.37,2013-04-28 14:18:00,
2013-04-28 10:23:00,79.3,67.0,30.12,South,180,4.8,10.0,66,0.00,OVC,,0.00,663.0,WeatherDisplay:10.37,2013-04-28 14:23:00,
2013-04-28 10:28:00,78.7,66.8,30.12,SSE,148,3.3,6.0,67,0.00,OVC,,0.00,679.0,WeatherDisplay:10.37,2013-04-28 14:28:00,
2013-04-28 10:33:00,78.6,66.7,30.12,SSE,153,2.8,4.6,67,0.00,OVC,,0.00,689.0,WeatherDisplay:10.37,2013-04-28 14:33:00,
2013-04-28 10:38:00,79.2,66.4,30.12,SSE,165,3.0,5.0,65,0.00,OVC,,0.00,715.0,WeatherDisplay:10.37,2013-04-28 14:38:00,
2013-04-28 10:43:00,79.9,66.2,30.13,ESE,116,4.2,6.9,63,0.00,OVC,,0.00,724.0,WeatherDisplay:10.37,2013-04-28 14:43:00,
2013-04-28 10:48:00,79.9,65.7,30.12,SSE,153,3.6,4.6,62,0.00,OVC,,0.00,737.0,WeatherDisplay:10.37,2013-04-28 14:48:00,
2013-04-28 10:53:00,80.1,65.9,30.12,SE,135,2.6,8.1,62,0.00,OVC,,0.00,745.0,WeatherDisplay:10.37,2013-04-28 14:53:00,
2013-04-28 10:58:00,80.4,66.2,30.12,SE,128,3.2,10.4,62,0.00,OVC,,0.00,763.0,WeatherDisplay:10.37,2013-04-28 14:58:00,
2013-04-28 11:03:00,81.5,67.2,30.12,SE,127,2.4,4.6,62,0.00,OVC,,0.00,779.0,WeatherDisplay:10.37,2013-04-28 15:03:00,
2013-04-28 11:08:00,81.1,66.4,30.11,South,178,4.1,6.9,61,0.00,OVC,,0.00,795.0,WeatherDisplay:10.37,2013-04-28 15:08:00,
2013-04-28 11:13:00,81.8,66.1,30.11,ESE,111,4.1,8.1,59,0.00,OVC,,0.00,860.0,WeatherDisplay:10.37,2013-04-28 15:13:00,
2013-04-28 11:18:00,81.4,66.7,30.11,SE,128,3.8,8.0,61,0.00,OVC,,0.00,828.0,WeatherDisplay:10.37,2013-04-28 15:18:00,
2013-04-28 11:23:00,81.3,66.1,30.11,NE,53,5.0,10.4,60,0.00,OVC,,0.00,840.0,WeatherDisplay:10.37,2013-04-28 15:23:00,
2013-04-28 11:28:00,80.9,64.7,30.11,East,84,3.9,9.2,58,0.00,OVC,,0.00,837.0,WeatherDisplay:10.37,2013-04-28 15:28:00,
2013-04-28 11:33:00,81.6,65.9,30.11,East,84,1.0,3.5,59,0.00,OVC,,0.00,847.0,WeatherDisplay:10.37,2013-04-28 15:33:00,
2013-04-28 11:38:00,82.5,65.7,30.10,ESE,113,4.6,11.5,57,0.00,OVC,,0.00,874.0,WeatherDisplay:10.37,2013-04-28 15:38:00,
2013-04-28 11:43:00,82.4,65.6,30.10,NNE,17,3.4,5.0,57,0.00,OVC,,0.00,888.0,WeatherDisplay:10.37,2013-04-28 15:43:00,
2013-04-28 11:48:00,83.1,65.8,30.10,ESE,105,2.7,9.2,56,0.00,OVC,,0.00,896.0,WeatherDisplay:10.37,2013-04-28 15:48:00,
2013-04-28 11:53:00,82.9,66.1,30.10,NNE,13,3.3,6.9,57,0.00,OVC,,0.00,909.0,WeatherDisplay:10.37,2013-04-28 15:53:00,
2013-04-28 11:58:00,83.2,65.4,30.10,ESE,111,4.8,6.9,55,0.00,OVC,,0.00,898.0,WeatherDisplay:10.37,2013-04-28 15:58:00,
2013-04-28 12:03:00,82.9,65.1,30.10,SSE,163,3.6,6.9,55,0.00,OVC,,0.00,911.0,WeatherDisplay:10.37,2013-04-28 16:03:00,
2013-04-28 12:08:00,83.6,65.2,30.10,ESE,116,3.7,5.8,54,0.00,OVC,,0.00,932.0,WeatherDisplay:10.37,2013-04-28 16:08:00,
2013-04-28 12:13:00,83.1,64.7,30.10,East,94,1.9,6.0,54,0.00,OVC,,0.00,926.0,WeatherDisplay:10.37,2013-04-28 16:13:00,
2013-04-28 12:18:00,83.7,65.3,30.10,South,171,6.1,11.5,54,0.00,OVC,,0.00,951.0,WeatherDisplay:10.37,2013-04-28 16:18:00,
2013-04-28 12:23:00,83.0,65.2,30.09,SSE,165,4.8,9.2,55,0.00,OVC,,0.00,946.0,WeatherDisplay:10.37,2013-04-28 16:23:00,
2013-04-28 12:28:00,83.9,65.5,30.09,SSW,211,4.2,5.8,54,0.00,OVC,,0.00,972.0,WeatherDisplay:10.37,2013-04-28 16:28:00,
2013-04-28 12:33:00,83.6,64.7,30.09,SSE,164,1.6,10.4,53,0.00,OVC,,0.00,953.0,WeatherDisplay:10.37,2013-04-28 16:33:00,
2013-04-28 12:38:00,84.4,64.3,30.09,SSE,161,5.3,8.1,51,0.00,OVC,,0.00,956.0,WeatherDisplay:10.37,2013-04-28 16:38:00,
2013-04-28 12:43:00,85.1,65.5,30.08,South,182,2.2,4.6,52,0.00,OVC,,0.00,967.0,WeatherDisplay:10.37,2013-04-28 16:43:00,
2013-04-28 12:48:00,85.1,64.4,30.08,ENE,70,2.1,4.0,50,0.00,OVC,,0.00,983.0,WeatherDisplay:10.37,2013-04-28 16:48:00,
2013-04-28 12:53:00,84.7,64.0,30.08,ESE,123,5.5,6.9,50,0.00,OVC,,0.00,960.0,WeatherDisplay:10.37,2013-04-28 16:53:00,
2013-04-28 12:58:00,84.8,64.1,30.07,ESE,111,5.0,8.1,50,0.00,OVC,,0.00,963.0,WeatherDisplay:10.37,2013-04-28 16:58:00,
2013-04-28 13:03:00,84.9,64.2,30.07,SE,134,5.0,6.0,50,0.00,OVC,,0.00,969.0,WeatherDisplay:10.37,2013-04-28 17:03:00,
2013-04-28 13:08:00,85.5,63.6,30.07,SSE,152,8.3,16.1,48,0.00,OVC,,0.00,962.0,WeatherDisplay:10.37,2013-04-28 17:08:00,
2013-04-28 13:13:00,85.3,63.4,30.07,SE,134,5.7,9.2,48,0.00,OVC,,0.00,974.0,WeatherDisplay:10.37,2013-04-28 17:13:00,
2013-04-28 13:18:00,85.7,63.8,30.06,ESE,115,2.4,3.5,48,0.00,OVC,,0.00,986.0,WeatherDisplay:10.37,2013-04-28 17:18:00,
2013-04-28 13:23:00,85.7,63.8,30.06,NE,38,4.4,9.2,48,0.00,OVC,,0.00,979.0,WeatherDisplay:10.37,2013-04-28 17:23:00,
2013-04-28 13:28:00,85.4,62.9,30.06,East,90,6.4,9.2,47,0.00,OVC,,0.00,981.0,WeatherDisplay:10.37,2013-04-28 17:28:00,
2013-04-28 13:33:00,86.0,64.0,30.06,ENE,67,4.4,9.2,48,0.00,OVC,,0.00,983.0,WeatherDisplay:10.37,2013-04-28 17:33:00,
2013-04-28 13:38:00,86.0,64.0,30.06,ESE,106,4.6,8.1,48,0.00,OVC,,0.00,983.0,WeatherDisplay:10.37,2013-04-28 17:38:00,
2013-04-28 13:43:00,85.9,63.3,30.06,ESE,112,7.2,13.8,47,0.00,OVC,,0.00,967.0,WeatherDisplay:10.37,2013-04-28 17:43:00,
2013-04-28 13:48:00,86.2,63.6,30.06,South,169,5.5,11.5,47,0.00,OVC,,0.00,986.0,WeatherDisplay:10.37,2013-04-28 17:48:00,
2013-04-28 13:53:00,86.6,64.0,30.05,NNE,31,4.8,9.0,47,0.00,OVC,,0.00,986.0,WeatherDisplay:10.37,2013-04-28 17:53:00,
2013-04-28 13:58:00,86.6,64.0,30.05,SE,143,4.4,8.0,47,0.00,OVC,,0.00,1062.0,WeatherDisplay:10.37,2013-04-28 17:58:00,
2013-04-28 14:03:00,87.1,64.4,30.05,ESE,122,3.9,8.1,47,0.00,OVC,,0.00,1048.0,WeatherDisplay:10.37,2013-04-28 18:03:00,
2013-04-28 14:08:00,87.6,63.6,30.05,NE,44,4.0,10.4,45,0.00,OVC,,0.00,1009.0,WeatherDisplay:10.37,2013-04-28 18:08:00,
2013-04-28 14:13:00,87.1,63.8,30.05,NNE,17,3.3,6.0,46,0.00,OVC,,0.00,1071.0,WeatherDisplay:10.37,2013-04-28 18:13:00,
2013-04-28 14:18:00,87.1,63.2,30.05,South,171,3.8,9.2,45,0.00,OVC,,0.00,1071.0,WeatherDisplay:10.37,2013-04-28 18:18:00,
2013-04-28 14:23:00,86.9,63.0,30.04,East,84,3.1,6.9,45,0.00,OVC,,0.00,1044.0,WeatherDisplay:10.37,2013-04-28 18:23:00,
2013-04-28 14:28:00,87.5,63.5,30.03,NE,49,2.1,4.6,45,0.00,OVC,,0.00,1048.0,WeatherDisplay:10.37,2013-04-28 18:28:00,
2013-04-28 14:33:00,86.9,62.4,30.03,East,100,3.5,9.2,44,0.00,OVC,,0.00,462.0,WeatherDisplay:10.37,2013-04-28 18:33:00,
2013-04-28 14:38:00,86.9,63.0,30.03,SSE,152,2.9,9.2,45,0.00,OVC,,0.00,993.0,WeatherDisplay:10.37,2013-04-28 18:38:00,
2013-04-28 14:43:00,87.8,63.8,30.03,SE,144,2.3,9.2,45,0.00,OVC,,0.00,970.0,WeatherDisplay:10.37,2013-04-28 18:43:00,
2013-04-28 14:48:00,88.2,62.9,30.03,SSE,150,5.9,9.2,43,0.00,OVC,,0.00,960.0,WeatherDisplay:10.37,2013-04-28 18:48:00,
2013-04-28 14:53:00,87.7,62.4,30.02,South,187,3.9,6.9,43,0.00,OVC,,0.00,991.0,WeatherDisplay:10.37,2013-04-28 18:53:00,
2013-04-28 14:58:00,88.0,62.7,30.02,South,185,4.2,4.2,43,0.00,OVC,,0.00,1037.0,WeatherDisplay:10.37,2013-04-28 18:58:00,
2013-04-28 15:03:00,87.5,62.2,30.02,NE,49,4.7,5.8,43,0.00,OVC,,0.00,190.0,WeatherDisplay:10.37,2013-04-28 19:03:00,
2013-04-28 15:08:00,86.2,61.7,30.02,SE,140,1.9,4.0,44,0.00,OVC,,0.00,206.0,WeatherDisplay:10.37,2013-04-28 19:08:00,
2013-04-28 15:13:00,85.9,62.1,30.02,NE,51,5.2,8.1,45,0.00,OVC,,0.00,244.0,WeatherDisplay:10.37,2013-04-28 19:13:00,
2013-04-28 15:18:00,85.9,62.1,30.02,South,169,5.4,5.4,45,0.00,OVC,,0.00,185.0,WeatherDisplay:10.37,2013-04-28 19:18:00,
2013-04-28 15:23:00,87.8,63.2,30.01,SE,144,0.9,4.6,44,0.00,OVC,,0.00,197.0,WeatherDisplay:10.37,2013-04-28 19:23:00,
2013-04-28 15:28:00,87.9,62.6,30.01,NE,46,1.9,3.5,43,0.00,OVC,,0.00,274.0,WeatherDisplay:10.37,2013-04-28 19:28:00,
2013-04-28 15:33:00,87.0,61.8,30.01,East,88,2.9,4.6,43,0.00,OVC,,0.00,257.0,WeatherDisplay:10.37,2013-04-28 19:33:00,
2013-04-28 15:38:00,86.5,62.0,30.01,NE,36,1.2,3.5,44,0.00,OVC,,0.00,229.0,WeatherDisplay:10.37,2013-04-28 19:38:00,
2013-04-28 15:43:00,85.6,65.4,30.01,SSW,198,1.8,4.6,51,0.00,OVC,,0.00,188.0,WeatherDisplay:10.37,2013-04-28 19:43:00,
2013-04-28 15:48:00,85.4,67.4,30.01,West,280,4.1,6.9,55,0.00,OVC,,0.00,840.0,WeatherDisplay:10.37,2013-04-28 19:48:00,
2013-04-28 15:53:00,86.2,67.6,30.01,North,355,3.6,4.6,54,0.00,OVC,,0.00,749.0,WeatherDisplay:10.37,2013-04-28 19:53:00,
2013-04-28 15:58:00,85.6,66.5,30.01,SSE,159,0.8,2.0,53,0.00,OVC,,0.00,867.0,WeatherDisplay:10.37,2013-04-28 19:58:00,
2013-04-28 16:04:00,85.8,67.2,30.00,North,11,2.2,2.3,54,0.00,OVC,,0.00,835.0,WeatherDisplay:10.37,2013-04-28 20:04:00,
2013-04-28 16:09:00,86.4,66.7,30.00,West,263,3.4,6.0,52,0.00,OVC,,0.00,262.0,WeatherDisplay:10.37,2013-04-28 20:09:00,
2013-04-28 16:14:00,85.8,67.2,30.00,WSW,256,2.9,5.8,54,0.00,OVC,,0.00,457.0,WeatherDisplay:10.37,2013-04-28 20:14:00,
2013-04-28 16:19:00,86.0,66.9,30.00,West,262,4.1,10.4,53,0.00,OVC,,0.00,791.0,WeatherDisplay:10.37,2013-04-28 20:19:00,
2013-04-28 16:24:00,85.9,66.8,30.00,WSW,239,2.1,4.0,53,0.00,OVC,,0.00,828.0,WeatherDisplay:10.37,2013-04-28 20:24:00,
2013-04-28 16:29:00,87.0,66.7,30.00,South,173,3.5,4.6,51,0.00,OVC,,0.00,911.0,WeatherDisplay:10.37,2013-04-28 20:29:00,
2013-04-28 16:34:00,86.7,67.5,30.00,SW,215,4.9,10.4,53,0.00,OVC,,0.00,745.0,WeatherDisplay:10.37,2013-04-28 20:34:00,
2013-04-28 16:39:00,87.0,67.2,30.00,West,272,4.9,11.0,52,0.00,OVC,,0.00,626.0,WeatherDisplay:10.37,2013-04-28 20:39:00,
2013-04-28 16:44:00,87.2,67.4,30.00,SW,231,2.3,5.8,52,0.00,OVC,,0.00,357.0,WeatherDisplay:10.37,2013-04-28 20:44:00,
2013-04-28 16:49:00,85.8,66.7,30.00,SSW,200,3.2,4.6,53,0.00,OVC,,0.00,438.0,WeatherDisplay:10.37,2013-04-28 20:49:00,
2013-04-28 16:54:00,85.4,66.3,30.00,West,265,4.2,5.8,53,0.00,OVC,,0.00,770.0,WeatherDisplay:10.37,2013-04-28 20:54:00,
2013-04-28 16:59:00,85.0,66.5,30.00,WSW,240,2.8,7.0,54,0.00,CLR,,0.00,276.0,WeatherDisplay:10.37,2013-04-28 20:59:00,
2013-04-28 17:04:00,83.7,66.8,30.00,South,171,3.9,6.0,57,0.00,CLR,,0.00,376.0,WeatherDisplay:10.37,2013-04-28 21:04:00,
2013-04-28 17:09:00,84.0,67.6,30.00,WSW,246,3.4,4.6,58,0.00,CLR,,0.00,295.0,WeatherDisplay:10.37,2013-04-28 21:09:00,
2013-04-28 17:14:00,83.0,67.2,30.00,West,261,3.7,8.1,59,0.00,CLR,,0.00,241.0,WeatherDisplay:10.37,2013-04-28 21:14:00,
2013-04-28 17:19:00,82.8,68.0,30.00,South,187,3.0,4.6,61,0.00,CLR,,0.00,313.0,WeatherDisplay:10.37,2013-04-28 21:19:00,
2013-04-28 17:24:00,82.5,68.2,30.00,South,182,3.0,6.9,62,0.00,CLR,,0.00,283.0,WeatherDisplay:10.37,2013-04-28 21:24:00,
2013-04-28 17:29:00,82.5,67.2,30.00,South,169,2.4,5.8,60,0.00,CLR,,0.00,316.0,WeatherDisplay:10.37,2013-04-28 21:29:00,
2013-04-28 17:34:00,82.8,68.0,30.00,WSW,240,2.5,3.5,61,0.00,CLR,,0.00,234.0,WeatherDisplay:10.37,2013-04-28 21:34:00,
2013-04-28 17:39:00,81.9,68.1,30.00,SW,214,3.8,5.8,63,0.00,CLR,,0.00,197.0,WeatherDisplay:10.37,2013-04-28 21:39:00,
2013-04-28 17:44:00,81.1,67.8,30.00,West,263,3.4,4.6,64,0.00,CLR,,0.00,221.0,WeatherDisplay:10.37,2013-04-28 21:44:00,
2013-04-28 17:49:00,81.3,68.4,30.00,SW,235,1.8,3.5,65,0.00,CLR,,0.00,522.0,WeatherDisplay:10.37,2013-04-28 21:49:00,
2013-04-28 17:54:00,82.2,67.9,29.99,South,181,2.3,5.8,62,0.00,CLR,,0.00,462.0,WeatherDisplay:10.37,2013-04-28 21:54:00,
2013-04-28 17:59:00,82.1,67.8,29.99,SW,229,2.1,4.0,62,0.00,CLR,,0.00,420.0,WeatherDisplay:10.37,2013-04-28 21:59:00,
2013-04-28 18:04:00,81.6,68.2,29.99,WSW,257,2.3,5.0,64,0.00,CLR,,0.00,383.0,WeatherDisplay:10.37,2013-04-28 22:04:00,
2013-04-28 18:09:00,81.3,67.5,29.99,WSW,239,3.2,4.6,63,0.00,CLR,,0.00,234.0,WeatherDisplay:10.37,2013-04-28 22:09:00,
2013-04-28 18:14:00,81.5,67.7,29.98,WNW,288,2.7,5.8,63,0.00,CLR,,0.00,334.0,WeatherDisplay:10.37,2013-04-28 22:14:00,
2013-04-28 18:19:00,81.2,66.9,29.98,West,279,1.6,3.5,62,0.00,SCT,,0.00,146.0,WeatherDisplay:10.37,2013-04-28 22:19:00,
2013-04-28 18:24:00,80.7,66.9,29.98,South,191,3.4,4.6,63,0.00,BKN,,0.00,121.0,WeatherDisplay:10.37,2013-04-28 22:24:00,
2013-04-28 18:29:00,80.8,67.5,29.98,SW,231,2.5,3.5,64,0.00,CLR,,0.00,262.0,WeatherDisplay:10.37,2013-04-28 22:29:00,
2013-04-28 18:34:00,81.3,67.5,29.98,West,271,3.1,4.6,63,0.00,CLR,,0.00,220.0,WeatherDisplay:10.37,2013-04-28 22:34:00,
2013-04-28 18:39:00,81.2,66.9,29.98,WSW,240,2.5,5.8,62,0.00,CLR,,0.00,271.0,WeatherDisplay:10.37,2013-04-28 22:39:00,
2013-04-28 18:44:00,80.8,67.0,29.98,SW,219,2.1,4.6,63,0.00,SCT,,0.00,211.0,WeatherDisplay:10.37,2013-04-28 22:44:00,
2013-04-28 18:49:00,80.9,67.6,29.98,West,268,0.2,2.3,64,0.00,SCT,,0.00,250.0,WeatherDisplay:10.37,2013-04-28 22:49:00,
2013-04-28 18:54:00,80.9,67.1,29.98,West,265,2.0,3.5,63,0.00,BKN,,0.00,130.0,WeatherDisplay:10.37,2013-04-28 22:54:00,
2013-04-28 18:59:00,80.7,67.4,29.98,WNW,288,2.6,4.6,64,0.00,BKN,,0.00,123.0,WeatherDisplay:10.37,2013-04-28 22:59:00,
2013-04-28 19:04:00,80.4,67.1,29.98,NNW,329,0.5,3.5,64,0.00,BKN,,0.00,109.0,WeatherDisplay:10.37,2013-04-28 23:04:00,
2013-04-28 19:09:00,80.0,66.7,29.98,West,259,1.0,3.5,64,0.00,BKN,,0.00,88.0,WeatherDisplay:10.37,2013-04-28 23:09:00,
2013-04-28 19:14:00,80.1,67.3,29.98,SSW,205,0.0,1.2,65,0.00,BKN,,0.00,58.0,WeatherDisplay:10.37,2013-04-28 23:14:00,
2013-04-28 19:19:00,79.8,67.4,29.98,West,259,0.3,2.3,66,0.00,BKN,,0.00,42.0,WeatherDisplay:10.37,2013-04-28 23:19:00,
2013-04-28 19:24:00,79.3,67.0,29.98,West,259,0.6,2.3,66,0.00,BKN,,0.00,39.0,WeatherDisplay:10.37,2013-04-28 23:24:00,
2013-04-28 19:29:00,79.1,67.2,29.98,West,259,0.0,1.2,67,0.00,,,0.00,26.0,WeatherDisplay:10.37,2013-04-28 23:29:00,
2013-04-28 19:34:00,78.8,66.9,29.98,West,261,0.1,1.2,67,0.00,,,0.00,21.0,WeatherDisplay:10.37,2013-04-28 23:34:00,
2013-04-28 19:39:00,78.8,66.9,29.98,West,262,0.7,2.0,67,0.00,,,0.00,19.0,WeatherDisplay:10.37,2013-04-28 23:39:00,
2013-04-28 19:44:00,78.8,66.5,29.98,West,262,0.0,0.0,66,0.00,,,0.00,12.0,WeatherDisplay:10.37,2013-04-28 23:44:00,
2013-04-28 19:49:00,78.8,66.5,29.98,West,262,0.8,2.3,66,0.00,,,0.00,11.0,WeatherDisplay:10.37,2013-04-28 23:49:00,
2013-04-28 19:54:00,78.6,66.7,29.98,West,262,0.0,0.0,67,0.00,,,0.00,5.0,WeatherDisplay:10.37,2013-04-28 23:54:00,
2013-04-28 19:59:00,78.5,67.1,29.98,North,355,0.5,3.5,68,0.00,,,0.00,0.0,WeatherDisplay:10.37,2013-04-28 23:59:00,
2013-04-28 20:04:00,78.3,66.9,29.98,NNW,333,0.6,2.3,68,0.00,,,0.00,0.0,WeatherDisplay:10.37,2013-04-29 00:04:00,
2013-04-28 20:09:00,78.2,66.8,29.98,NNW,333,0.1,0.0,68,0.00,,,0.00,0.0,WeatherDisplay:10.37,2013-04-29 00:09:00,
2013-04-28 20:14:00,78.2,66.8,29.99,NNW,333,0.2,1.2,68,0.00,,,0.00,0.0,WeatherDisplay:10.37,2013-04-29 00:14:00,
2013-04-28 20:19:00,78.2,67.2,29.99,West,271,0.3,2.0,69,0.00,,,0.00,0.0,WeatherDisplay:10.37,2013-04-29 00:19:00,
2013-04-28 20:24:00,78.1,67.5,29.99,North,360,0.1,1.2,70,0.00,,,0.00,0.0,WeatherDisplay:10.37,2013-04-29 00:24:00,
2013-04-28 20:29:00,78.0,67.8,29.99,NNE,20,0.8,3.5,71,0.00,,,0.00,0.0,WeatherDisplay:10.37,2013-04-29 00:29:00,
2013-04-28 20:34:00,77.8,68.0,29.99,NNW,340,1.3,3.5,72,0.00,,,0.00,0.0,WeatherDisplay:10.37,2013-04-29 00:34:00,
2013-04-28 20:39:00,77.6,68.3,29.99,NNE,13,0.6,2.3,73,0.00,,,0.00,0.0,WeatherDisplay:10.37,2013-04-29 00:39:00,
2013-04-28 20:44:00,77.4,68.5,29.99,WNW,291,0.1,0.0,74,0.00,,,0.00,0.0,WeatherDisplay:10.37,2013-04-29 00:44:00,
2013-04-28 20:49:00,77.4,68.5,29.99,NNW,345,0.4,2.3,74,0.00,,,0.00,0.0,WeatherDisplay:10.37,2013-04-29 00:49:00,
2013-04-28 20:54:00,77.2,68.3,29.99,North,9,2.2,3.5,74,0.00,,,0.00,0.0,WeatherDisplay:10.37,2013-04-29 00:54:00,
2013-04-28 20:59:00,77.0,68.5,29.99,North,5,0.8,2.3,75,0.00,,,0.00,0.0,WeatherDisplay:10.37,2013-04-29 00:59:00,
2013-04-28 21:04:00,76.9,68.4,29.99,North,355,1.6,2.3,75,0.00,,,0.00,0.0,WeatherDisplay:10.37,2013-04-29 01:04:00,
2013-04-28 21:09:00,76.8,68.3,29.99,NNE,26,2.2,3.5,75,0.00,,,0.00,0.0,WeatherDisplay:10.37,2013-04-29 01:09:00,
2013-04-28 21:14:00,76.7,68.6,29.99,NNW,344,0.6,1.2,76,0.00,,,0.00,0.0,WeatherDisplay:10.37,2013-04-29 01:14:00,
2013-04-28 21:19:00,76.6,68.5,30.00,North,360,0.1,2.3,76,0.00,,,0.00,0.0,WeatherDisplay:10.37,2013-04-29 01:19:00,
2013-04-28 21:24:00,76.4,68.3,29.99,NNW,346,0.5,1.2,76,0.00,,,0.00,0.0,WeatherDisplay:10.37,2013-04-29 01:24:00,
2013-04-28 21:29:00,76.3,68.2,30.00,NNW,346,0.0,0.0,76,0.00,,,0.00,0.0,WeatherDisplay:10.37,2013-04-29 01:29:00,
2013-04-28 21:34:00,76.3,68.2,30.00,NNW,346,0.0,0.0,76,0.00,,,0.00,0.0,WeatherDisplay:10.37,2013-04-29 01:34:00,
2013-04-28 21:39:00,76.2,68.1,30.00,NNW,346,0.0,1.2,76,0.00,,,0.00,0.0,WeatherDisplay:10.37,2013-04-29 01:39:00,
2013-04-28 21:44:00,76.2,68.1,30.00,NNW,346,0.1,0.0,76,0.00,,,0.00,0.0,WeatherDisplay:10.37,2013-04-29 01:44:00,
2013-04-28 21:49:00,76.1,68.0,30.01,NNW,346,0.0,0.0,76,0.00,,,0.00,0.0,WeatherDisplay:10.37,2013-04-29 01:49:00,
2013-04-28 21:54:00,75.8,68.1,30.01,NNW,346,0.0,0.0,77,0.00,,,0.00,0.0,WeatherDisplay:10.37,2013-04-29 01:54:00,
2013-04-28 21:59:00,75.9,67.8,30.01,NNW,346,0.0,0.0,76,0.00,,,0.00,0.0,WeatherDisplay:10.37,2013-04-29 01:59:00,
2013-04-28 22:04:00,76.1,68.0,30.01,NNW,346,0.0,0.0,76,0.00,,,0.00,0.0,WeatherDisplay:10.37,2013-04-29 02:04:00,
2013-04-28 22:09:00,76.4,68.3,30.01,NNW,346,0.0,1.2,76,0.00,,,0.00,0.0,WeatherDisplay:10.37,2013-04-29 02:09:00,
2013-04-28 22:14:00,76.5,68.0,30.01,NNW,346,0.2,1.2,75,0.00,,,0.00,0.0,WeatherDisplay:10.37,2013-04-29 02:14:00,
2013-04-28 22:19:00,76.5,68.0,30.02,NNW,346,0.0,1.2,75,0.00,,,0.00,0.0,WeatherDisplay:10.37,2013-04-29 02:19:00,
2013-04-28 22:24:00,76.7,68.2,30.02,ENE,63,0.6,3.5,75,0.00,,,0.00,0.0,WeatherDisplay:10.37,2013-04-29 02:24:00,
2013-04-28 22:29:00,76.7,68.2,30.02,NE,39,2.0,3.5,75,0.00,,,0.00,0.0,WeatherDisplay:10.37,2013-04-29 02:29:00,
2013-04-28 22:34:00,76.7,68.2,30.02,ENE,63,0.1,3.5,75,0.00,,,0.00,0.0,WeatherDisplay:10.37,2013-04-29 02:34:00,
2013-04-28 22:39:00,76.7,67.8,30.02,ENE,63,0.0,0.0,74,0.00,,,0.00,0.0,WeatherDisplay:10.37,2013-04-29 02:39:00,
2013-04-28 22:44:00,76.7,67.8,30.02,East,94,0.0,0.0,74,0.00,,,0.00,0.0,WeatherDisplay:10.37,2013-04-29 02:44:00,
2013-04-28 22:49:00,76.7,68.2,30.02,East,94,0.0,1.2,75,0.00,,,0.00,0.0,WeatherDisplay:10.37,2013-04-29 02:49:00,
2013-04-28 22:54:00,76.0,69.0,30.02,East,94,0.0,0.0,79,0.00,,,0.00,0.0,WeatherDisplay:10.37,2013-04-29 02:54:00,
2013-04-28 22:59:00,74.7,69.2,30.02,East,94,0.0,0.0,83,0.00,,,0.00,0.0,WeatherDisplay:10.37,2013-04-29 02:59:00,
2013-04-28 23:04:00,74.2,70.1,30.02,East,94,0.0,0.0,87,0.00,,,0.00,0.0,WeatherDisplay:10.37,2013-04-29 03:04:00,
2013-04-28 23:09:00,74.0,70.2,30.02,East,94,0.0,0.0,88,0.00,,,0.00,0.0,WeatherDisplay:10.37,2013-04-29 03:09:00,
2013-04-28 23:14:00,74.1,70.3,30.03,East,94,0.0,0.0,88,0.00,,,0.00,0.0,WeatherDisplay:10.37,2013-04-29 03:14:00,
2013-04-28 23:19:00,73.9,70.5,30.02,East,94,0.0,0.0,89,0.00,,,0.00,0.0,WeatherDisplay:10.37,2013-04-29 03:19:00,
2013-04-28 23:24:00,73.6,70.5,30.02,East,94,0.0,0.0,90,0.00,,,0.00,0.0,WeatherDisplay:10.37,2013-04-29 03:24:00,
2013-04-28 23:29:00,73.7,70.9,30.03,East,94,0.0,0.0,91,0.00,,,0.00,0.0,WeatherDisplay:10.37,2013-04-29 03:29:00,
2013-04-28 23:34:00,73.8,71.0,30.03,ENE,74,0.0,1.2,91,0.00,,,0.00,0.0,WeatherDisplay:10.37,2013-04-29 03:34:00,
2013-04-28 23:39:00,74.0,70.9,30.02,North,360,1.1,2.3,90,0.00,,,0.00,0.0,WeatherDisplay:10.37,2013-04-29 03:39:00,
2013-04-28 23:44:00,74.4,71.3,30.03,NNE,12,0.9,2.3,90,0.00,,,0.00,0.0,WeatherDisplay:10.37,2013-04-29 03:44:00,
2013-04-28 23:49:00,74.5,71.0,30.03,NNE,19,1.2,3.5,89,0.00,,,0.00,0.0,WeatherDisplay:10.37,2013-04-29 03:49:00,
2013-04-28 23:54:00,74.5,70.7,30.03,NNE,20,0.6,2.3,88,0.00,,,0.00,0.0,WeatherDisplay:10.37,2013-04-29 03:54:00,
2013-04-28 23:59:00,74.6,70.1,30.03,SSE,165,2.0,3.5,86,0.01,RA,,0.01,0.0,WeatherDisplay:10.37,2013-04-29 03:59:00,